DW8913 Weather Reports


Display with metric or nautical units.
time (UTC)temp
F
wind
direction
speed
MPH
gust
MPH
rain 1hr
in
rain 24hr
in
rain mn
in
humidity
%
barometer
mb
20210417060217 49 289 0.0 7.0 0.00 0.00 0.00 63 1007.9
20210417054620 49 302 0.0 3.0 0.00 0.00 0.00 63 1007.9
20210417053207 49 302 0.0 7.0 0.00 0.00 0.00 63 1007.8
20210417051626 49 282 0.0 0.0 0.00 0.00 0.00 65 1008.0
20210417050048 50 312 0.0 0.0 0.00 0.00 0.00 65 1008.0
20210417044522 50 314 0.0 1.0 0.00 0.00 0.00 65 1007.9
20210417043144 50 295 0.0 0.0 0.00 0.00 0.00 65 1007.8
20210417041541 51 313 0.0 0.0 0.00 0.00 0.00 65 1008.0
20210417040031 51 309 0.0 0.0 0.00 0.00 0.00 65 1008.2
20210417034609 51 314 0.0 0.0 0.00 0.00 0.00 65 1008.1
20210417031648 51 348 0.0 0.0 0.00 0.00 0.00 65 1007.9
20210417030042 51 336 0.0 0.0 0.00 0.00 0.00 65 1008.0
20210417024641 52 314 0.0 0.0 0.00 0.00 0.00 65 1007.9
20210417023052 54 295 0.0 0.0 0.00 0.00 0.00 63 1007.7
20210417020052 54 285 0.0 1.0 0.00 0.00 0.00 64 1007.7
20210417014512 54 266 0.0 3.0 0.00 0.00 0.00 63 1007.6
20210417013102 54 271 0.0 2.0 0.00 0.00 0.00 62 1007.5
20210417010250 54 262 0.0 2.0 0.00 0.00 0.00 62 1007.4
20210417004646 54 253 0.0 1.0 0.00 0.00 0.00 61 1007.2
20210417003201 54 284 0.0 6.0 0.00 0.00 0.00 59 1007.0
20210417001726 54 266 0.0 8.0 0.00 0.00 0.00 61 1006.6
20210417000237 54 272 0.0 3.0 0.00 0.00 0.00 60 1006.3
20210416234846 54 312 0.0 1.0 0.00 0.00 0.00 61 1006.0
20210416233117 54 267 0.0 6.0 0.00 0.00 0.00 60 1005.8
20210416231554 55 284 0.0 6.0 0.00 0.00 0.00 58 1005.7
20210416230217 55 264 1.0 6.0 0.00 0.00 0.00 55 1005.5
20210416224701 56 271 0.0 6.0 0.00 0.00 0.00 56 1005.4
20210416223109 56 261 1.0 12.0 0.00 0.00 0.00 52 1005.2
20210416221521 56 267 2.0 10.0 0.00 0.00 0.00 55 1005.1
20210416220231 56 270 1.0 12.0 0.00 0.00 0.00 54 1005.1
20210416214543 55 278 0.0 9.0 0.00 0.00 0.00 55 1005.1
20210416211553 56 285 1.0 11.0 0.00 0.00 0.00 53 1004.8
20210416210031 56 283 0.0 7.0 0.00 0.00 0.00 55 1004.7
20210416204513 56 273 0.0 9.0 0.00 0.00 0.00 56 1004.8
20210416203149 55 280 0.0 8.0 0.00 0.00 0.00 56 1004.8
20210416201618 55 284 0.0 7.0 0.00 0.00 0.00 55 1005.0
20210416200123 54 264 3.0 12.0 0.00 0.00 0.00 54 1005.1
20210416195136 54 287 1.0 9.0 0.00 0.00 0.00 55 1005.2
20210416193357 55 322 1.0 10.0 0.00 0.00 0.00 56 1005.3
20210416191514 54 333 2.0 11.0 0.00 0.00 0.00 55 1005.3
20210416190146 54 269 2.0 10.0 0.00 0.00 0.00 56 1005.3
20210416184535 54 272 2.0 13.0 0.00 0.01 0.00 55 1005.4
20210416181633 53 283 2.0 14.0 0.00 0.01 0.00 58 1005.6
20210416180039 53 266 4.0 13.0 0.00 0.01 0.00 57 1005.6
20210416173140 52 188 1.0 12.0 0.00 0.01 0.00 57 1005.7
20210416171609 53 294 1.0 7.0 0.00 0.01 0.00 56 1005.8
20210416164553 52 283 1.0 6.0 0.00 0.01 0.00 57 1006.1
20210416163030 52 276 0.0 12.0 0.00 0.01 0.00 57 1006.2
20210416161621 52 313 1.0 7.0 0.00 0.01 0.00 55 1006.4
20210416160110 51 243 1.0 9.0 0.00 0.01 0.00 59 1006.5
20210416153141 50 287 0.0 11.0 0.00 0.04 0.00 61 1006.8
20210416151541 50 269 1.0 9.0 0.00 0.04 0.00 58 1007.0
20210416150331 51 319 2.0 8.0 0.00 0.04 0.00 57 1006.9
20210416144543 50 297 0.0 6.0 0.00 0.06 0.00 58 1007.0
20210416143027 51 286 0.0 6.0 0.00 0.06 0.00 57 1007.0
20210416141621 50 238 1.0 7.0 0.00 0.06 0.00 56 1006.9
20210416140224 49 289 0.0 8.0 0.00 0.06 0.00 58 1007.0
20210416133112 48 275 1.0 9.0 0.00 0.16 0.00 59 1007.0
20210416131518 48 333 0.0 7.0 0.00 0.16 0.00 61 1007.3
20210416124618 47 261 0.0 7.0 0.00 0.19 0.00 65 1007.5
20210416123104 46 311 0.0 5.0 0.00 0.19 0.00 65 1007.4
20210416120242 46 283 0.0 0.0 0.00 0.19 0.00 64 1007.6
20210416114515 45 280 0.0 2.0 0.00 0.19 0.00 64 1007.6
20210416113119 44 291 0.0 1.0 0.00 0.19 0.00 63 1007.4
20210416111529 44 304 0.0 1.0 0.00 0.19 0.00 61 1007.5
20210416110111 43 278 0.0 0.0 0.00 0.19 0.00 60 1007.3
20210416104710 42 278 0.0 0.0 0.00 0.19 0.00 60 1007.1
20210416103129 42 283 0.0 0.0 0.00 0.19 0.00 60 1007.1
20210416101643 42 257 0.0 0.0 0.00 0.19 0.00 62 1007.1
20210416100123 43 291 0.0 0.0 0.00 0.19 0.00 64 1007.2
20210416094531 43 274 0.0 0.0 0.00 0.20 0.00 64 1007.0
20210416093226 43 304 0.0 1.0 0.00 0.20 0.00 64 1007.0
20210416091530 43 295 0.0 1.0 0.00 0.20 0.00 65 1007.1
20210416090041 43 289 0.0 0.0 0.00 0.20 0.00 65 1006.9
20210416084628 43 287 0.0 0.0 0.00 0.21 0.00 65 1007.0
20210416083049 44 306 0.0 0.0 0.00 0.21 0.00 65 1007.1
20210416081531 44 334 0.0 2.0 0.00 0.21 0.00 65 1007.2
20210416080220 44 266 0.0 4.0 0.00 0.21 0.00 65 1007.2
20210416074552 44 285 0.0 0.0 0.00 0.22 0.00 65 1007.3
20210416073042 45 291 0.0 0.0 0.00 0.22 0.00 64 1007.2
20210416071636 45 305 0.0 0.0 0.00 0.22 0.00 63 1007.4
20210416070046 45 293 0.0 0.0 0.00 0.22 0.00 64 1007.4
20210416063145 46 285 0.0 0.0 0.00 0.22 0.00 61 1007.4
20210416061526 47 290 0.0 3.0 0.00 0.22 0.00 60 1007.4